Regional Weather Roundup
Issued by NWS Goodland, KS

Home | Current Version | Previous Version | Text Only | Print | Product List | Glossary Off
Versions: 1 2 3 4 5 6 7 8 9 10 11 12 13 14 15 16 17 18 19 20 21 22 23 24 25 26 27 28 29 30 31 32 33 34 35 36 37 38 39 40 41 42 43 44 45 46 47 48 49 50

000
ASUS43 KGLD 011859
RWRGLD

GOODLAND FORECAST AREA HOURLY WEATHER ROUNDUP
NATIONAL WEATHER SERVICE GOODLAND KS
100 PM MDT SUN MAY 01 2016

...OFFICIAL OBSERVATIONS...

CITY           SKY/WX    TMP DP  RH WIND       PRES   REMARKS
GOODLAND KS    CLOUDY    50  33  52 N29       30.18F
HILL CITY KS   CLOUDY    50  40  68 N21G30    30.18F
IMPERIAL NEB   PTSUNNY   51  34  52 N23G32    30.24F
MCCOOK NEB     PTSUNNY   53  38  56 NE25      30.19F
AKRON CO       SUNNY     37  31  78 N12       30.27F
BURLINGTON CO  PTSUNNY   47  31  53 N26G38    30.19F
LIMON CO       CLOUDY    35  31  85 N17       30.26F
$$

...UNOFFICIAL OBSERVATIONS...

CITY           SKY/WX    TMP DP  RH WIND       PRES   REMARKS
COLBY KS       CLOUDY    46  41  81 N18G24    30.20F
LENORA KS        N/A     47  32  56 MISG        N/A
NORTON KS      CLOUDY    48  37  66 N18G26    30.19S
SHARON SPRINGS   N/A     45  38  78 NE13G22     N/A
KIT CARSON CO    N/A     43  33  69 MISG        N/A
YUMA CO          N/A     43  36  77 NE14        N/A
$$



USA.gov is the U.S. government's official web portal to all federal, state and local government web resources and services.